Simultaneous Nadir Overpasses (SNOs) Predictions

Prediction of SNOs between NOAA-19 and TERRA Satellite Orbit:

Table of predicted SNOs for the next 14.0 days since TLE Epoch: 1/2/2016
Index Date (NOAA-19) Time (NOAA-19) Lat,Lon (NOAA-19) SZA (NOAA-19 ) Date (TERRA) Time (TERRA) Lat,Lon (TERRA) SZA (TERRA ) Distance(km) Time Diff (sec)
1 01/02/2016 13:12:48 -73.04, 167.18 84.08 01/02/2016 13:13:53 -73.04, 167.20 84.08 0.71 65
2 01/02/2016 14:03:43 72.94, -25.34 95.83 01/02/2016 14:03:20 72.95, -25.33 95.84 1.73 23
3 01/04/2016 18:46:54 73.02, -96.26 95.68 01/04/2016 18:47:36 73.04, -96.24 95.71 2.41 42
4 01/04/2016 19:37:57 -72.91, 71.21 84.43 01/04/2016 19:37:06 -72.92, 71.16 84.43 1.82 51
5 01/07/2016 00:21:09 -73.00, 0.25 84.59 01/07/2016 00:21:23 -73.00, 0.24 84.60 0.62 14
6 01/07/2016 01:12:03 72.84, 167.88 95.25 01/07/2016 01:10:51 72.86, 167.60 95.25 9.20 72
7 01/09/2016 05:04:26 -73.35, -71.30 84.54 01/09/2016 05:05:37 -73.23, -70.38 84.65 32.47 71
8 01/09/2016 05:55:16 72.98, 96.82 95.09 01/09/2016 05:55:07 72.98, 96.77 95.09 1.82 9
9 01/11/2016 10:38:28 73.07, 25.86 94.86 01/11/2016 10:39:24 73.04, 25.82 94.83 3.31 56
10 01/11/2016 11:29:30 -72.95,-166.64 85.26 01/11/2016 11:28:53 -72.98,-166.67 85.24 3.33 37
11 01/13/2016 16:12:42 -73.07, 122.35 85.51 01/13/2016 16:13:10 -73.04, 122.37 85.54 3.46 28
12 01/13/2016 17:03:38 72.96, -70.14 94.38 01/13/2016 17:02:37 72.95, -70.17 94.36 1.49 61
13 01/15/2016 21:46:50 73.06,-141.12
